Location: Feydey
(46.3431°N, 7.0106°E)
Time: 06:56:21
(UTC+00:00)

Cosmos 1459 Rocket - Pass Details

Date: 20 June 2021
Orbit: 937 x 1000 km, 83.0° (Epoch: 29 July)

Event Time Altitude Azimuth Distance (km) Brightness Sun altitude
Rises 20:48:46 0° 349° (N) 3,609 8.2 -10.9°
Reaches altitude 10° 20:51:16 10° 348° (NNW) 2,660 7.4 -11.1°
Maximum altitude 20:57:18 73° 265° (W) 984 4.1 -11.8°
Drops below altitude 10° 21:03:19 10° 182° (S) 2,656 5.8 -12.4°
Enters shadow 21:03:33 - 182° (S) 2,745 5.9 -12.4°
